Location: Unspecified
(0.0000°N, 0.0000°E)
Time: 19:48:46
(UTC+00:00)

Envisat - Pass Details

Date: 19 October 2021
Orbit: 764 x 766 km, 98.2° (Epoch: 24 October)

Event Time Altitude Azimuth Distance (km) Brightness Sun altitude
Rises 04:16:34 0° 24° (NNE) 3,213 6.4 -21.8°
Reaches altitude 10° 04:18:58 10° 31° (NNE) 2,291 5.7 -21.2°
Maximum altitude 04:23:45 44° 102° (ESE) 1,053 4.2 -20.0°
Drops below altitude 10° 04:28:33 10° 173° (S) 2,301 5.7 -18.8°
Sets 04:30:56 0° 180° (S) 3,229 6.4 -18.2°
